Peru, IN

1:15 AM EST on November 22, 2017 (GMT -0500)
Grissom Air Reserve Base

Weather History for KGUS - January, 2013

Change the Weather History Date:

Wednesday, January 2, 2013

  Actual Average Record
Temperature  
Mean Temperature 11 °F -  
Max Temperature 19 °F 32 °F 60 °F (2004)
Min Temperature 3 °F 21 °F 1 °F (2008)
Degree Days  
Heating Degree Days 54    
Moisture  
Dew Point 4 °F    
Average Humidity 74    
Maximum Humidity 87    
Minimum Humidity 59    
Precipitation  
Precipitation 0.00 in - - ()
Sea Level Pressure  
Sea Level Pressure 30.23 in    
Wind  
Wind Speed 6 mph (SW)    
Max Wind Speed 9 mph    
Max Gust Speed -    
Visibility 10 miles    
Events      
Averages and records for this station are not official NWS values.
T = Trace of Precipitation, MM = Missing Value Source: NWS Daily Summary

Daily Weather History Graph

Daily Weather History Graph

Search for Another Location

Airport or City:

Trip Planner

Search our weather history database for the weather conditions in past years. The results will help you decide how hot, cold, wet, or windy it might be!

Date:

Astronomy

Jan. 02, 2013 Rise Set
Actual Time 8:08 AM EST 5:29 PM EST
Civil Twilight 7:37 AM EST 6:00 PM EST
Nautical Twilight 7:03 AM EST 6:34 PM EST
Astronomical Twilight 6:30 AM EST 7:07 PM EST
Moon 11:02 PM EST (1/2) 10:48 AM EST (1/2)
Length of Visible Light 10h 22m
Length of Day
9h 20m
Waning Gibbous, 75% of the Moon is Illuminated
Jan 2
Waning Gibbous
Jan 4
Last Quarter
Jan 11
New
Jan 18
First Quarter
Jan 26
Full

Hourly Weather History & Observations

Time (EST) Temp. Windchill Dew Point Humidity Pressure Visibility Wind Dir Wind Speed Gust Speed Precip Events Conditions
12:55 AM 9.5 °F -1.5 °F 6.4 °F 87% 30.19 in 10.0 mi West 6.9 mph - N/A   Clear
1:55 AM 8.4 °F -1.6 °F 5.4 °F 87% 30.19 in 10.0 mi West 5.8 mph - N/A   Clear
2:55 AM 6.4 °F -5.2 °F 2.8 °F 85% 30.21 in 10.0 mi West 6.9 mph - N/A   Clear
3:55 AM 5.0 °F -8.1 °F 1.2 °F 84% 30.21 in 10.0 mi West 8.1 mph - N/A   Clear
4:55 AM 5.0 °F -8.1 °F 1.2 °F 84% 30.23 in 10.0 mi West 8.1 mph - N/A   Clear
5:55 AM 3.7 °F -5.5 °F -0.0 °F 84% 30.22 in 10.0 mi West 4.6 mph - N/A   Clear
6:55 AM 4.6 °F -4.5 °F 0.7 °F 84% 30.22 in 10.0 mi West 4.6 mph - N/A   Clear
7:55 AM 3.0 °F -6.4 °F -0.6 °F 85% 30.23 in 10.0 mi SW 4.6 mph - N/A   Clear
8:55 AM 3.9 °F -3.4 °F 0.3 °F 85% 30.25 in 10.0 mi West 3.5 mph - N/A   Clear
9:55 AM 7.2 °F -1.5 °F 3.2 °F 84% 30.27 in 10.0 mi West 4.6 mph - N/A   Clear
10:30 AM 10.4 °F 0.8 °F 5.0 °F 79% 30.23 in 10.0 mi West 5.8 mph - N/A   Clear
10:55 AM 11.1 °F 1.7 °F 5.5 °F 78% 30.29 in 10.0 mi West 5.8 mph - N/A   Clear
11:55 AM 13.8 °F 4.9 °F 5.9 °F 71% 30.27 in 10.0 mi West 5.8 mph - N/A   Clear
12:55 PM 16.5 °F 8.1 °F 5.7 °F 63% 30.25 in 10.0 mi West 5.8 mph - N/A   Clear
1:55 PM 18.1 °F 11.3 °F 6.8 °F 61% 30.23 in 10.0 mi SW 4.6 mph - N/A   Clear
2:55 PM 19.2 °F 12.5 °F 6.8 °F 59% 30.22 in 10.0 mi SSW 4.6 mph - N/A   Clear
3:55 PM 19.6 °F 11.7 °F 7.3 °F 59% 30.22 in 10.0 mi SSW 5.8 mph - N/A   Clear
4:55 PM 17.2 °F 7.8 °F 7.3 °F 65% 30.24 in 10.0 mi SSW 6.9 mph - N/A   Clear
5:55 PM 13.1 °F 2.8 °F 3.9 °F 67% 30.26 in 10.0 mi South 6.9 mph - N/A   Clear
6:55 PM 13.3 °F 3.0 °F 4.6 °F 68% 30.25 in 10.0 mi South 6.9 mph - N/A   Clear
7:55 PM 12.7 °F 2.4 °F 3.6 °F 67% 30.24 in 10.0 mi South 6.9 mph - N/A   Clear
8:55 PM 10.9 °F 1.4 °F 2.8 °F 70% 30.25 in 10.0 mi SSE 5.8 mph - N/A   Clear
9:55 PM 12.2 °F 1.7 °F 2.8 °F 66% 30.23 in 10.0 mi South 6.9 mph - N/A   Clear
10:55 PM 13.3 °F 2.0 °F 3.6 °F 65% 30.23 in 10.0 mi South 8.1 mph - N/A   Clear
11:55 PM 14.4 °F 2.4 °F 4.8 °F 66% 30.22 in 10.0 mi South 9.2 mph - N/A   Clear